Lapse_Rate
6.9 6.8 6.8 6.7 6.5 6.5 6.5 6.4 6.3 6.1 6.0 5.9 5.8 5.7 5.6 5.8 5.8 5.9 6.1 5.9 5.7 5.8 5.8 6.0 5.9 5.9 5.8 5.8 5.8 5.6 5.3 5.4 5.6
6.6 6.5 6.6 6.5 6.6 6.6 6.5 6.5 6.4 6.1 6.1 5.9 5.7 5.7 5.6 5.8 5.8 5.9 5.9 5.8 5.9 5.9 5.9 5.9 5.9 5.9 5.9 5.9 5.6 5.6 5.4 5.5 5.6
6.7 6.6 6.5 6.5 6.4 6.5 6.4 6.3 6.3 6.3 6.1 5.9 5.6 5.5 5.4 5.6 5.7 5.9 6.1 6.1 5.9 5.8 5.9 5.9 5.9 5.8 5.9 6.0 5.9 5.6 5.6 5.5 5.4
6.7 6.7 6.7 6.6 6.5 6.6 6.4 6.3 6.1 6.0 5.9 5.6 5.4 5.3 5.2 5.5 5.5 6.0 5.8 6.1 6.2 6.1 5.9 5.8 5.9 5.9 5.7 5.7 5.8 5.8 5.7 5.7 5.5
6.6 6.6 6.7 6.8 6.8 6.7 6.5 6.5 6.4 6.3 6.2 5.8 5.6 5.5 5.4 5.4 5.8 6.0 5.9 6.0 6.1 6.2 6.2 6.0 5.9 5.9 5.8 5.8 5.8 5.9 5.9 5.7 5.5
6.6 6.6 6.7 6.7 6.8 6.6 6.5 6.5 6.5 6.5 6.5 6.4 6.2 5.9 5.7 5.8 6.2 6.1 6.0 6.0 6.1 6.1 6.3 6.4 6.1 5.9 5.8 5.9 5.8 5.8 5.7 5.7 5.7
6.7 6.7 6.7 6.6 6.6 6.6 6.6 6.6 6.6 6.6 6.5 6.4 6.3 6.1 5.9 5.7 5.8 5.8 5.8 5.9 6.0 6.1 6.2 6.3 6.4 6.2 5.9 5.8 5.8 5.8 6.0 6.1 5.7
6.6 6.6 6.6 6.6 6.7 6.6 6.6 6.6 6.5 6.5 6.6 6.5 6.3 5.9 5.7 5.8 5.9 5.8 5.8 5.9 6.0 6.1 6.1 6.2 6.3 6.3 6.2 6.0 5.9 6.0 6.0 6.0 5.9
6.7 6.6 6.6 6.6 6.5 6.6 6.5 6.7 6.7 6.7 6.7 6.4 6.2 6.0 6.0 5.9 5.8 5.7 5.7 5.8 5.9 6.1 6.1 6.1 6.2 6.3 6.3 6.2 6.1 6.1 5.9 5.7 5.7
6.6 6.7 6.7 6.7 6.6 6.6 6.5 6.6 6.6 6.5 6.5 6.5 6.3 6.1 6.0 5.9 5.8 5.8 5.9 6.1 6.1 6.1 6.2 6.2 6.1 6.2 6.3 6.3 6.1 6.0 6.0 5.8 5.8
6.6 6.6 6.6 6.5 6.5 6.4 6.4 6.4 6.6 6.6 6.6 6.5 6.4 6.2 6.1 6.0 6.0 5.9 5.9 6.2 6.2 6.3 6.2 6.2 6.2 6.1 6.2 6.3 6.4 6.3 6.1 6.0 6.0
6.4 6.4 6.3 6.3 6.3 6.2 6.1 6.2 6.4 6.5 6.4 6.5 6.4 6.3 6.1 6.2 6.2 6.2 6.1 6.2 6.3 6.4 6.5 6.4 6.3 6.3 6.2 6.2 6.3 6.4 6.3 6.2 6.2
6.2 6.2 6.2 6.1 6.0 6.0 6.0 6.1 6.1 6.1 6.2 6.3 6.2 6.2 6.1 6.1 6.0 6.0 6.1 6.0 6.3 6.5 6.5 6.6 6.5 6.5 6.5 6.5 6.4 6.4 6.3 6.4 6.2
6.2 6.2 6.2 6.0 6.0 6.0 6.0 6.0 6.0 6.1 6.1 6.1 6.1 6.1 6.1 6.1 6.0 6.0 6.0 6.1 6.2 6.3 6.6 6.7 6.6 6.6 6.6 6.7 6.6 6.5 6.3 6.5 6.3
6.2 6.1 6.1 6.1 6.0 6.0 5.9 5.9 5.9 6.0 6.1 6.1 6.0 5.9 5.9 5.9 5.8 5.9 5.9 6.0 6.1 6.1 6.3 6.6 6.5 6.6 6.6 6.7 6.5 6.2 5.5 6.0 6.4
6.1 6.1 6.1 6.1 6.1 6.1 6.0 6.0 5.9 5.9 5.9 5.9 5.9 5.9 5.9 5.8 5.8 5.8 5.9 6.0 5.9 6.1 6.1 6.3 6.4 6.4 6.5 6.6 6.7 6.5 6.4 6.2 6.3
6.1 6.1 6.1 6.1 6.1 6.1 6.1 6.0 6.0 5.9 5.9 5.8 5.9 5.9 6.0 5.8 5.8 5.8 5.8 5.9 5.9 5.8 5.9 6.1 6.3 6.3 6.3 6.3 6.3 6.4 6.4 6.4 6.4
6.0 6.1 6.1 6.1 6.1 6.0 6.0 5.9 5.9 5.9 5.9 5.8 5.8 5.8 6.0 5.8 5.7 5.7 5.7 5.8 5.8 5.8 5.7 5.7 5.9 6.1 6.1 6.2 6.3 6.2 6.2 6.4 6.4
6.1 6.1 6.1 6.1 6.1 6.1 6.0 6.0 5.9 5.9 5.8 5.9 5.8 5.8 5.8 5.9 6.1 5.7 5.7 5.8 5.8 5.8 5.8 5.9 5.9 5.9 5.9 6.0 6.0 6.2 6.2 6.2 6.3
6.0 6.0 6.1 6.1 6.1 6.1 6.0 6.1 6.1 6.1 6.0 5.9 5.9 5.8 5.8 5.8 5.8 6.1 6.2 5.8 5.8 5.8 5.9 5.9 5.8 5.9 5.9 5.9 5.9 5.9 6.1 6.3 6.3
Wind_Speed
4 3 3 3 3 3 6 6 7 6 5 5 5 4 6 9 9 8 9 11 11 9 8 8 8 8 6 4 5 9 7 2 4
5 5 4 2 3 3 5 8 7 7 6 5 5 4 8 11 3 8 15 12 11 8 6 7 5 5 5 5 3 4 6 3 0
8 13 13 10 10 6 10 10 11 9 8 6 4 3 6 10 4 15 13 12 8 8 6 3 3 3 4 5 5 1 3 3 3
6 12 11 10 13 12 13 14 13 10 9 7 5 5 6 8 16 15 11 10 7 7 8 5 3 2 3 6 6 6 4 6 6
8 13 10 10 10 10 11 11 9 8 7 6 9 11 12 14 15 14 16 12 7 7 7 6 5 5 6 7 9 11 12 15 13
10 6 6 8 9 8 8 9 10 6 8 11 17 19 16 16 15 14 18 13 12 12 10 6 4 4 7 10 14 16 15 15 16
9 7 5 5 4 5 6 7 9 10 10 11 15 14 16 16 14 16 24 14 13 14 13 10 6 4 8 10 10 11 10 12 12
7 5 3 2 5 2 4 8 10 10 9 13 14 14 13 12 14 19 21 23 15 15 15 16 8 9 13 11 10 12 12 12 11
7 7 8 7 6 7 9 8 8 15 17 15 15 14 12 11 11 17 21 22 22 21 16 17 12 12 13 14 12 13 12 11 11
7 6 8 6 8 8 5 6 9 11 13 14 12 11 13 12 11 11 21 21 22 22 26 20 15 14 11 11 11 12 9 8 7
5 5 5 7 7 8 8 5 5 7 10 9 11 11 12 12 11 10 12 21 21 21 23 23 23 16 12 10 11 9 7 2 8
6 4 3 5 3 5 6 6 10 5 8 6 8 10 10 11 11 10 11 11 20 21 22 21 22 22 21 14 7 8 5 6 9
6 4 3 5 5 5 3 4 4 4 5 4 4 5 10 12 13 14 13 13 13 16 21 21 23 22 21 19 18 15 14 16 14
8 6 4 6 5 4 2 4 4 4 5 6 5 4 4 8 11 12 13 14 15 14 16 20 22 22 23 21 19 16 15 20 23
9 7 4 6 3 4 4 5 5 3 4 7 5 4 4 8 7 8 12 15 16 17 15 14 15 19 21 23 22 17 18 21 24
8 5 4 6 4 4 4 3 5 5 3 4 4 4 5 6 5 9 9 10 13 16 16 16 16 16 17 22 23 23 20 20 23
7 6 4 4 4 5 3 3 2 2 3 2 3 3 2 3 4 4 4 6 11 11 14 16 16 16 16 17 23 23 19 19 21
7 7 6 4 5 4 3 3 3 3 2 4 2 2 3 3 1 4 4 5 4 8 10 13 15 16 17 18 17 19 20 20 23
7 7 8 5 4 5 3 3 2 3 3 2 3 4 3 3 2 1 3 4 5 4 7 10 13 15 16 15 15 16 18 18 20
7 8 8 5 4 4 6 4 5 3 3 2 2 3 3 3 2 3 2 2 3 3 5 8 9 10 13 12 13 14 13 14 16
Wind_Direction
21 23 15 14 5 21 55 69 60 53 62 65 48 26 335 325 320 35 61 64 55 46 34 36 43 42 41 63 94 136 158 74 112
41 128 95 87 61 66 86 69 72 62 64 71 69 12 335 323 19 73 70 52 41 29 16 26 23 40 40 47 72 134 155 171 169
81 69 60 63 58 72 69 73 73 64 61 61 53 17 353 323 38 74 62 46 36 17 3 342 16 41 44 45 52 46 148 105 358
110 70 60 58 57 67 58 63 65 56 47 41 17 345 350 333 54 58 45 28 20 25 22 27 50 72 51 64 64 59 71 159 185
60 46 40 49 52 61 69 66 74 53 45 35 12 353 334 67 60 39 23 16 24 30 27 39 40 64 68 70 70 74 79 80 73
97 87 65 63 59 61 60 64 65 53 39 32 36 40 51 62 54 34 17 26 45 44 30 24 28 66 83 86 89 86 93 89 85
112 120 109 91 93 97 101 107 91 68 54 43 44 53 59 55 52 38 24 30 44 44 40 30 30 77 113 102 99 96 89 95 91
175 149 132 89 58 140 141 90 83 81 79 62 56 57 58 61 52 39 33 36 39 50 43 36 41 90 111 105 101 92 82 73 63
72 72 58 66 40 75 72 74 102 75 65 71 61 61 62 57 58 42 41 41 41 45 49 44 73 88 95 95 91 78 75 71 66
80 79 75 62 52 49 65 99 88 82 69 68 75 68 64 59 58 48 45 50 43 46 44 50 66 77 97 109 85 79 73 65 35
72 76 73 62 68 74 64 62 91 108 102 88 89 81 74 67 60 50 44 51 50 51 51 48 49 60 66 75 89 59 47 4 344
94 90 72 71 71 114 110 90 85 86 105 112 101 91 93 83 68 56 45 46 48 47 51 49 49 48 52 61 64 31 21 350 328
98 88 70 53 43 80 92 102 93 111 108 97 91 76 86 84 75 64 54 45 49 44 50 46 45 44 42 42 45 47 49 27 7
98 96 93 91 62 53 72 65 117 107 103 95 87 87 84 83 84 74 66 62 59 58 52 49 46 43 42 39 35 48 55 43 36
106 102 89 104 98 70 68 75 58 93 106 98 82 80 79 74 71 69 68 62 52 53 56 54 49 46 43 40 30 42 53 50 42
120 119 100 86 94 98 102 104 85 42 62 107 76 71 82 79 77 73 66 59 58 53 51 47 50 50 44 38 33 30 39 45 42
132 122 114 112 101 82 79 106 100 78 33 151 143 132 67 61 81 75 82 68 63 52 50 46 43 52 45 37 35 27 36 42 42
121 122 116 94 104 100 81 71 97 131 17 52 140 122 149 134 135 89 82 85 73 65 67 56 45 49 47 34 28 28 37 40 45
127 122 120 114 114 108 107 72 76 109 134 51 37 59 112 150 136 118 123 108 90 68 52 57 53 56 51 40 31 31 40 40 38
146 134 124 114 106 110 115 92 76 65 105 99 102 61 48 59 123 153 166 77 108 96 84 72 61 66 61 45 34 37 36 34 28